{"data":{"norad_id":67347,"epoch":"2026-09-18T06:14:03.606144Z","epoch_age_seconds":268878,"freshness":"STALE","line1":"1 67347U 26003P   26261.25976396  .00017871  00000+0  65664-3 0  9995","line2":"2 67347  43.0020 219.6482 0001366 280.6597  79.4101 15.27616427 38276","mean_motion":15.27616427,"eccentricity":0.0001366,"inclination_deg":43.002,"raan_deg":219.6482,"arg_perigee_deg":280.6597,"mean_anomaly_deg":79.4101,"bstar":0.00065664,"rev_number":3827,"period_min":94.264500862166,"perigee_km":482.0027995433,"apogee_km":483.87724578589,"semimajor_km":6861.0770226646,"source":"CELESTRAK","updated_at":"2026-09-20T09:00:43.513920Z"}}